When you browse on this site, cookies collect data to enhance your experience and personalize the content and advertising you see.
Visit our Privacy Policy to learn more. By continuing to use the site, you agree to this use of cookies and data.
  • In Hungary
  • List of Countries
  • For 7 days
  • Water Temperature
  • Weather Map
  • News
  • Weather Widgets
  • user-avatar
    Login

    Hourly Weather Ghent

    Today, 2 April, Thursday

    Time Temperature Precipitation Wind Pressure Humidity
    00:00 +2°C° 0 mm 0 mps 763 mmHg 85%
    01:00 +3°C° 0 mm 1 mps 762 mmHg 85%
    02:00 +3°C° 0 mm 1 mps 762 mmHg 85%
    03:00 +2°C° 0 mm 1 mps 762 mmHg 86%
    04:00 +2°C° 0 mm 1 mps 762 mmHg 85%
    05:00 +1°C° 0 mm 2 mps 761 mmHg 85%
    06:00 +2°C° 0 mm 2 mps 761 mmHg 85%
    07:00 +4°C° 0 mm 2 mps 761 mmHg 78%
    08:00 +6°C° 0 mm 2 mps 761 mmHg 72%
    09:00 +8°C° 0 mm 3 mps 760 mmHg 65%
    10:00 +9°C° 0 mm 3 mps 760 mmHg 63%
    11:00 +9°C° 0 mm 3 mps 760 mmHg 61%
    12:00 +10°C° 0 mm 4 mps 760 mmHg 59%
    13:00 +10°C° 0 mm 4 mps 759 mmHg 58%
    14:00 +10°C° 0 mm 4 mps 759 mmHg 57%
    15:00 +10°C° 0 mm 5 mps 758 mmHg 57%
    16:00 +10°C° 0 mm 4 mps 758 mmHg 62%
    17:00 +8°C° 0 mm 4 mps 758 mmHg 67%
    18:00 +8°C° 0 mm 4 mps 758 mmHg 72%
    19:00 +7°C° 0.1 mm 4 mps 758 mmHg 76%
    20:00 +7°C° 0.1 mm 4 mps 758 mmHg 80%
    21:00 +6°C° 0.1 mm 5 mps 758 mmHg 84%
    22:00 +6°C° 0.1 mm 4 mps 758 mmHg 86%
    23:00 +6°C° 0.1 mm 4 mps 759 mmHg 89%

    Tomorrow, 3 April, Friday

    Time Temperature Precipitation Wind Pressure Humidity
    00:00 +5°C° 0.1 mm 4 mps 759 mmHg 91%
    01:00 +5°C° 0 mm 4 mps 759 mmHg 90%
    02:00 +5°C° 0 mm 4 mps 759 mmHg 89%
    03:00 +4°C° 0 mm 3 mps 759 mmHg 88%
    04:00 +4°C° 0 mm 3 mps 759 mmHg 88%
    05:00 +3°C° 0 mm 3 mps 760 mmHg 88%
    06:00 +3°C° 0 mm 3 mps 760 mmHg 88%
    07:00 +4°C° 0 mm 3 mps 760 mmHg 81%
    08:00 +6°C° 0 mm 4 mps 761 mmHg 73%
    09:00 +7°C° 0 mm 4 mps 761 mmHg 65%
    10:00 +7°C° 0 mm 4 mps 761 mmHg 62%
    11:00 +7°C° 0 mm 4 mps 762 mmHg 59%
    12:00 +8°C° 0 mm 4 mps 762 mmHg 56%
    13:00 +8°C° 0 mm 4 mps 762 mmHg 55%
    14:00 +8°C° 0 mm 4 mps 762 mmHg 54%
    15:00 +7°C° 0 mm 4 mps 762 mmHg 53%
    16:00 +7°C° 0 mm 3 mps 763 mmHg 58%
    17:00 +5°C° 0 mm 3 mps 763 mmHg 62%
    18:00 +5°C° 0 mm 2 mps 763 mmHg 66%
    19:00 +4°C° 0 mm 2 mps 764 mmHg 68%
    20:00 +5°C° 0 mm 1 mps 764 mmHg 71%
    21:00 +4°C° 0 mm 1 mps 765 mmHg 73%
    22:00 +3°C° 0 mm 1 mps 765 mmHg 75%
    23:00 +3°C° 0 mm 1 mps 765 mmHg 76%

    Day after tomorrow, 4 April, Saturday

    Time Temperature Precipitation Wind Pressure Humidity
    00:00 +3°C° 0 mm 1 mps 766 mmHg 78%
    01:00 +3°C° 0 mm 1 mps 766 mmHg 79%
    02:00 +2°C° 0 mm 1 mps 766 mmHg 80%
    03:00 +2°C° 0 mm 1 mps 766 mmHg 82%
    04:00 +2°C° 0 mm 1 mps 766 mmHg 81%
    05:00 +2°C° 0 mm 1 mps 766 mmHg 81%
    06:00 +2°C° 0 mm 1 mps 767 mmHg 80%
    07:00 +3°C° 0 mm 2 mps 767 mmHg 73%
    08:00 +5°C° 0 mm 2 mps 766 mmHg 66%
    09:00 +7°C° 0 mm 2 mps 766 mmHg 58%
    10:00 +9°C° 0 mm 3 mps 766 mmHg 54%
    11:00 +10°C° 0 mm 3 mps 766 mmHg 50%
    12:00 +11°C° 0 mm 3 mps 766 mmHg 45%
    13:00 +12°C° 0 mm 3 mps 766 mmHg 45%
    14:00 +13°C° 0 mm 3 mps 765 mmHg 45%
    15:00 +14°C° 0 mm 3 mps 765 mmHg 44%
    16:00 +13°C° 0 mm 2 mps 765 mmHg 49%
    17:00 +12°C° 0 mm 2 mps 765 mmHg 54%
    18:00 +11°C° 0 mm 1 mps 765 mmHg 59%
    19:00 +10°C° 0 mm 1 mps 765 mmHg 63%
    20:00 +8°C° 0 mm 2 mps 765 mmHg 66%
    21:00 +8°C° 0 mm 2 mps 765 mmHg 69%
    22:00 +7°C° 0 mm 2 mps 765 mmHg 72%
    23:00 +7°C° 0 mm 3 mps 765 mmHg 74%

    5 April, Sunday

    Time Temperature Precipitation Wind Pressure Humidity
    00:00 +5°C° 0 mm 3 mps 765 mmHg 77%
    01:00 +5°C° 0 mm 3 mps 764 mmHg 78%
    02:00 +5°C° 0 mm 3 mps 764 mmHg 80%
    03:00 +4°C° 0 mm 3 mps 763 mmHg 81%
    04:00 +4°C° 0 mm 3 mps 763 mmHg 82%
    05:00 +4°C° 0 mm 3 mps 763 mmHg 82%
    06:00 +4°C° 0 mm 4 mps 763 mmHg 83%
    07:00 +7°C° 0 mm 4 mps 763 mmHg 77%
    08:00 +10°C° 0 mm 4 mps 762 mmHg 72%
    09:00 +12°C° 0 mm 5 mps 762 mmHg 66%
    10:00 +14°C° 0 mm 5 mps 762 mmHg 62%
    11:00 +16°C° 0 mm 5 mps 761 mmHg 59%
    12:00 +17°C° 0 mm 5 mps 761 mmHg 55%
    13:00 +19°C° 0 mm 6 mps 761 mmHg 54%
    14:00 +19°C° 0 mm 6 mps 760 mmHg 53%
    15:00 +19°C° 0 mm 6 mps 760 mmHg 52%
    16:00 +17°C° 0 mm 6 mps 760 mmHg 57%
    17:00 +16°C° 0 mm 5 mps 759 mmHg 62%
    18:00 +14°C° 0 mm 4 mps 759 mmHg 66%
    19:00 +13°C° 0 mm 5 mps 759 mmHg 67%
    20:00 +13°C° 0 mm 5 mps 759 mmHg 67%
    21:00 +12°C° 0 mm 5 mps 760 mmHg 68%
    22:00 +12°C° 0 mm 5 mps 759 mmHg 69%
    23:00 +10°C° 0 mm 5 mps 759 mmHg 70%

    6 April, Monday

    Time Temperature Precipitation Wind Pressure Humidity
    00:00 +10°C° 0 mm 5 mps 759 mmHg 71%
    01:00 +9°C° 0 mm 5 mps 759 mmHg 72%
    02:00 +9°C° 0 mm 5 mps 759 mmHg 73%
    03:00 +9°C° 0 mm 5 mps 759 mmHg 73%
    04:00 +9°C° 0 mm 5 mps 759 mmHg 73%
    05:00 +8°C° 0 mm 6 mps 759 mmHg 72%
    06:00 +8°C° 0 mm 6 mps 759 mmHg 72%
    07:00 +9°C° 0 mm 6 mps 759 mmHg 67%
    08:00 +10°C° 0 mm 7 mps 759 mmHg 63%
    09:00 +11°C° 0 mm 7 mps 760 mmHg 58%
    10:00 +11°C° 0 mm 7 mps 760 mmHg 62%
    11:00 +10°C° 0 mm 7 mps 760 mmHg 65%
    12:00 +10°C° 0 mm 7 mps 761 mmHg 68%
    13:00 +9°C° 0.2 mm 6 mps 761 mmHg 75%
    14:00 +9°C° 0.2 mm 6 mps 761 mmHg 81%
    15:00 +9°C° 0.2 mm 5 mps 762 mmHg 87%
    16:00 +9°C° 0 mm 5 mps 762 mmHg 87%
    17:00 +10°C° 0 mm 4 mps 763 mmHg 87%
    18:00 +11°C° 0 mm 4 mps 763 mmHg 87%
    19:00 +10°C° 0 mm 4 mps 764 mmHg 88%
    20:00 +10°C° 0 mm 4 mps 765 mmHg 89%
    21:00 +10°C° 0 mm 3 mps 765 mmHg 90%
    22:00 +10°C° 0.1 mm 3 mps 766 mmHg 91%
    23:00 +9°C° 0.1 mm 2 mps 766 mmHg 93%

    7 April, Tuesday

    Time Temperature Precipitation Wind Pressure Humidity
    00:00 +9°C° 0.1 mm 2 mps 767 mmHg 94%
    01:00 +8°C° 0 mm 2 mps 767 mmHg 94%
    02:00 +8°C° 0 mm 2 mps 767 mmHg 94%
    03:00 +7°C° 0 mm 2 mps 768 mmHg 94%
    04:00 +8°C° 0 mm 1 mps 768 mmHg 93%
    05:00 +8°C° 0 mm 1 mps 769 mmHg 93%
    06:00 +8°C° 0 mm 1 mps 769 mmHg 92%
    07:00 +10°C° 0 mm 1 mps 770 mmHg 84%
    08:00 +12°C° 0 mm 1 mps 770 mmHg 76%
    09:00 +14°C° 0 mm 1 mps 770 mmHg 67%
    10:00 +15°C° 0 mm 1 mps 770 mmHg 62%
    11:00 +16°C° 0 mm 1 mps 770 mmHg 57%
    12:00 +18°C° 0 mm 1 mps 770 mmHg 52%
    13:00 +19°C° 0 mm 1 mps 770 mmHg 53%
    14:00 +19°C° 0 mm 1 mps 770 mmHg 54%
    15:00 +19°C° 0 mm 1 mps 770 mmHg 55%
    16:00 +18°C° 0 mm 1 mps 770 mmHg 60%
    17:00 +16°C° 0 mm 1 mps 770 mmHg 65%
    18:00 +16°C° 0 mm 2 mps 769 mmHg 70%
    19:00 +15°C° 0 mm 2 mps 770 mmHg 74%
    20:00 +14°C° 0 mm 2 mps 770 mmHg 78%
    21:00 +13°C° 0 mm 2 mps 770 mmHg 81%
    22:00 +13°C° 0 mm 2 mps 770 mmHg 84%
    23:00 +12°C° 0 mm 2 mps 770 mmHg 86%
    Show more